LNI316 WARR-WAOO

Flight info

Callsign LNI316
Flight time 0h 57m
Altitude 31000
Route RAMPY T13 IKAPI
Aircraft B738/M-SDE2E3FGHIRWXY/LB1

Departure

Time 2026-05-07 15:40
Airport Juanda International Airport (WARR)

Arrival

Time 2026-05-07 16:37
Airport Syamsudin Noor International Airport (WAOO)
Time Latitude Longitude Altitude Speed Heading
2026-05-07 15:12 -7.37544 112.79186 8 ft 0 kts
2026-05-07 15:27 -7.37564 112.79183 8 ft 4 kts
2026-05-07 15:27 -7.37589 112.79184 8 ft 4 kts 350°
2026-05-07 15:28 -7.37613 112.79191 8 ft 4 kts 332°
2026-05-07 15:28 -7.37632 112.79205 11 ft 4 kts 303°
2026-05-07 15:28 -7.37638 112.79220 10 ft 0 kts 279°
2026-05-07 15:31 -7.37638 112.79218 11 ft 1 kts 279°
2026-05-07 15:31 -7.37636 112.79199 8 ft 4 kts 277°
2026-05-07 15:31 -7.37630 112.79155 8 ft 8 kts 277°
2026-05-07 15:31 -7.37628 112.79107 8 ft 6 kts 253°
2026-05-07 15:32 -7.37667 112.79096 8 ft 6 kts 185°
2026-05-07 15:32 -7.37689 112.79094 8 ft 0 kts 185°
2026-05-07 15:32 -7.37699 112.79092 9 ft 3 kts 189°
2026-05-07 15:32 -7.37742 112.79085 8 ft 9 kts 189°
2026-05-07 15:33 -7.37815 112.79072 8 ft 8 kts 189°
2026-05-07 15:33 -7.37860 112.79047 8 ft 8 kts 238°
2026-05-07 15:33 -7.37858 112.78996 8 ft 7 kts 278°
2026-05-07 15:33 -7.37848 112.78934 10 ft 12 kts 279°
2026-05-07 15:34 -7.37832 112.78838 8 ft 15 kts 279°
2026-05-07 15:34 -7.37816 112.78738 8 ft 14 kts 279°
2026-05-07 15:34 -7.37800 112.78643 8 ft 13 kts 278°
2026-05-07 15:34 -7.37785 112.78544 8 ft 16 kts 279°
2026-05-07 15:35 -7.37767 112.78432 8 ft 16 kts 280°
2026-05-07 15:35 -7.37749 112.78322 8 ft 15 kts 278°
2026-05-07 15:35 -7.37732 112.78217 8 ft 15 kts 279°
2026-05-07 15:35 -7.37715 112.78112 9 ft 16 kts 279°
2026-05-07 15:36 -7.37695 112.77985 8 ft 20 kts 279°
2026-05-07 15:36 -7.37672 112.77845 8 ft 20 kts 279°
2026-05-07 15:36 -7.37650 112.77708 8 ft 19 kts 279°
2026-05-07 15:36 -7.37629 112.77580 8 ft 17 kts 279°
2026-05-07 15:37 -7.37614 112.77485 8 ft 9 kts 279°
2026-05-07 15:37 -7.37610 112.77422 8 ft 9 kts 252°
2026-05-07 15:37 -7.37654 112.77384 7 ft 7 kts 191°
2026-05-07 15:37 -7.37680 112.77380 7 ft 0 kts 189°
2026-05-07 15:38 -7.37685 112.77379 7 ft 2 kts 189°
2026-05-07 15:38 -7.37720 112.77374 7 ft 8 kts 184°
2026-05-07 15:38 -7.37773 112.77402 8 ft 10 kts 112°
2026-05-07 15:39 -7.37793 112.77508 8 ft 37 kts 99°
2026-05-07 15:39 -7.37875 112.78019 8 ft 109 kts 99°
2026-05-07 15:39 -7.38020 112.78981 10 ft 167 kts 98°
2026-05-07 15:39 -7.38228 112.80246 392 ft 193 kts 101°
2026-05-07 15:40 -7.38478 112.81605 1108 ft 200 kts 99°
2026-05-07 15:40 -7.38691 112.83000 1769 ft 210 kts 100°
2026-05-07 15:40 -7.38933 112.84531 2074 ft 230 kts 100°
2026-05-07 15:40 -7.39193 112.86153 2478 ft 238 kts 100°
2026-05-07 15:41 -7.39457 112.87779 2489 ft 239 kts 100°
2026-05-07 15:41 -7.39728 112.89436 2795 ft 241 kts 101°
2026-05-07 15:41 -7.39984 112.91115 3474 ft 244 kts 95°
2026-05-07 15:41 -7.39650 112.92782 4164 ft 247 kts 64°
2026-05-07 15:42 -7.38742 112.94255 4866 ft 250 kts 56°
2026-05-07 15:42 -7.37692 112.95670 5527 ft 256 kts 54°
2026-05-07 15:42 -7.36561 112.97155 6046 ft 272 kts 54°
2026-05-07 15:42 -7.35796 112.98159 6531 ft 275 kts 54°
2026-05-07 15:43 -7.34239 113.00217 7596 ft 277 kts 54°
2026-05-07 15:43 -7.33462 113.01251 8101 ft 280 kts 54°
2026-05-07 15:43 -7.32284 113.02823 8866 ft 283 kts 54°
2026-05-07 15:43 -7.31095 113.04417 9647 ft 286 kts 54°
2026-05-07 15:44 -7.29888 113.06036 10322 ft 293 kts 54°
2026-05-07 15:44 -7.28617 113.07745 10518 ft 316 kts 54°
2026-05-07 15:44 -7.27243 113.09560 10778 ft 335 kts 50°
2026-05-07 15:44 -7.25385 113.11009 11283 ft 345 kts 26°
2026-05-07 15:45 -7.23090 113.11741 11983 ft 347 kts 14°
2026-05-07 15:45 -7.20746 113.12281 12611 ft 352 kts 14°
2026-05-07 15:45 -7.18335 113.12822 13218 ft 357 kts 13°
2026-05-07 15:45 -7.15906 113.13368 13824 ft 360 kts 13°
2026-05-07 15:46 -7.10959 113.14497 14878 ft 368 kts 13°
2026-05-07 15:46 -7.08452 113.15078 15402 ft 373 kts 13°
2026-05-07 15:46 -7.05903 113.15672 15939 ft 376 kts 13°
2026-05-07 15:47 -7.03340 113.16271 16461 ft 380 kts 13°
2026-05-07 15:47 -7.00749 113.16877 16992 ft 384 kts 13°
2026-05-07 15:47 -6.98139 113.17490 17507 ft 388 kts 13°
2026-05-07 15:47 -6.95497 113.18109 18005 ft 392 kts 13°
2026-05-07 15:48 -6.92819 113.18737 18469 ft 395 kts 13°
2026-05-07 15:48 -6.90129 113.19367 18948 ft 397 kts 13°
2026-05-07 15:48 -6.87430 113.20000 19418 ft 399 kts 13°
2026-05-07 15:48 -6.84716 113.20636 19863 ft 402 kts 13°
2026-05-07 15:49 -6.81974 113.21279 20314 ft 404 kts 13°
2026-05-07 15:49 -6.79227 113.21922 20787 ft 406 kts 13°
2026-05-07 15:49 -6.76477 113.22567 21257 ft 407 kts 13°
2026-05-07 15:49 -6.73712 113.23215 21721 ft 409 kts 13°
2026-05-07 15:50 -6.70930 113.23866 22152 ft 411 kts 13°
2026-05-07 15:50 -6.68169 113.24513 22585 ft 413 kts 13°
2026-05-07 15:50 -6.65368 113.25169 23030 ft 415 kts 13°
2026-05-07 15:50 -6.62540 113.25831 23441 ft 417 kts 13°
2026-05-07 15:51 -6.59705 113.26495 23784 ft 419 kts 13°
2026-05-07 15:51 -6.56859 113.27162 24097 ft 421 kts 13°
2026-05-07 15:51 -6.53993 113.27833 24403 ft 424 kts 13°
2026-05-07 15:51 -6.51105 113.28509 24705 ft 427 kts 13°
2026-05-07 15:52 -6.48208 113.29186 25013 ft 429 kts 13°
2026-05-07 15:52 -6.45295 113.29865 25317 ft 431 kts 13°
2026-05-07 15:52 -6.42363 113.30549 25605 ft 434 kts 13°
2026-05-07 15:52 -6.39409 113.31238 25897 ft 436 kts 13°
2026-05-07 15:53 -6.36447 113.31929 26188 ft 438 kts 13°
2026-05-07 15:53 -6.33465 113.32625 26472 ft 441 kts 13°
2026-05-07 15:53 -6.30472 113.33323 26759 ft 443 kts 13°
2026-05-07 15:53 -6.27461 113.34025 27035 ft 445 kts 13°
2026-05-07 15:54 -6.24447 113.34784 27290 ft 447 kts 19°
2026-05-07 15:54 -6.21622 113.35988 27536 ft 449 kts 26°
2026-05-07 15:54 -6.18817 113.37400 27824 ft 451 kts 27°
2026-05-07 15:54 -6.16027 113.38835 28073 ft 453 kts 27°
2026-05-07 15:55 -6.13209 113.40277 28327 ft 455 kts 27°
2026-05-07 15:55 -6.10369 113.41712 28564 ft 457 kts 27°
2026-05-07 15:55 -6.07512 113.43134 28843 ft 458 kts 26°
2026-05-07 15:55 -6.04655 113.44542 29184 ft 457 kts 26°
2026-05-07 15:56 -6.01785 113.45947 29592 ft 456 kts 26°
2026-05-07 15:56 -5.98932 113.47339 29937 ft 456 kts 26°
2026-05-07 15:56 -5.96110 113.48715 30209 ft 456 kts 26°
2026-05-07 15:56 -5.93260 113.50105 30529 ft 455 kts 26°
2026-05-07 15:57 -5.90413 113.51493 30842 ft 454 kts 26°
2026-05-07 15:57 -5.84688 113.54286 30889 ft 459 kts 26°
2026-05-07 15:58 -5.78978 113.57073 30872 ft 452 kts 26°
2026-05-07 15:58 -5.73302 113.59842 30896 ft 453 kts 26°
2026-05-07 15:59 -5.67648 113.62601 30892 ft 455 kts 26°
2026-05-07 15:59 -5.61952 113.65379 30879 ft 455 kts 26°
2026-05-07 16:00 -5.56234 113.68168 30891 ft 456 kts 26°
2026-05-07 16:00 -5.50543 113.70941 30881 ft 455 kts 26°
2026-05-07 16:01 -5.44870 113.73706 30880 ft 455 kts 26°
2026-05-07 16:01 -5.39163 113.76487 30881 ft 454 kts 26°
2026-05-07 16:02 -5.33490 113.79251 30887 ft 452 kts 26°
2026-05-07 16:02 -5.27866 113.81991 30883 ft 451 kts 26°
2026-05-07 16:03 -5.22220 113.84740 30876 ft 451 kts 27°
2026-05-07 16:03 -5.16577 113.87488 30886 ft 450 kts 26°
2026-05-07 16:04 -5.10934 113.90235 30882 ft 450 kts 26°
2026-05-07 16:04 -5.05288 113.92984 30884 ft 450 kts 27°
2026-05-07 16:05 -4.99650 113.95729 30887 ft 451 kts 26°
2026-05-07 16:05 -4.93860 113.98135 30859 ft 452 kts
2026-05-07 16:06 -4.87655 113.98954 30887 ft 452 kts
2026-05-07 16:06 -4.81426 113.99883 30868 ft 453 kts
2026-05-07 16:06 -4.78318 114.00367 30690 ft 448 kts
2026-05-07 16:07 -4.75275 114.00843 30449 ft 438 kts
2026-05-07 16:07 -4.72287 114.01310 30213 ft 430 kts
2026-05-07 16:07 -4.69350 114.01769 29985 ft 425 kts
2026-05-07 16:08 -4.63582 114.02667 29697 ft 427 kts
2026-05-07 16:08 -4.60649 114.03122 29439 ft 425 kts
2026-05-07 16:08 -4.57738 114.03574 29164 ft 420 kts
2026-05-07 16:08 -4.54868 114.04019 28901 ft 417 kts
2026-05-07 16:09 -4.51999 114.04464 28643 ft 416 kts
2026-05-07 16:09 -4.49138 114.04908 28390 ft 414 kts
2026-05-07 16:09 -4.46294 114.05349 28143 ft 413 kts
2026-05-07 16:09 -4.43459 114.05788 27896 ft 411 kts
2026-05-07 16:10 -4.40639 114.06225 27652 ft 410 kts
2026-05-07 16:10 -4.37820 114.06662 27408 ft 409 kts
2026-05-07 16:10 -4.34999 114.07100 27166 ft 408 kts
2026-05-07 16:10 -4.32200 114.07534 26925 ft 407 kts
2026-05-07 16:11 -4.29414 114.07966 26690 ft 405 kts
2026-05-07 16:11 -4.26625 114.08398 26452 ft 404 kts 10°
2026-05-07 16:11 -4.23878 114.08824 26227 ft 404 kts 10°
2026-05-07 16:11 -4.21097 114.09255 25996 ft 404 kts 10°
2026-05-07 16:12 -4.18317 114.09686 25759 ft 403 kts 10°
2026-05-07 16:12 -4.15554 114.10114 25538 ft 399 kts 10°
2026-05-07 16:12 -4.12838 114.10534 25179 ft 391 kts 10°
2026-05-07 16:12 -4.10167 114.10948 24827 ft 388 kts 10°
2026-05-07 16:13 -4.07501 114.11361 24440 ft 386 kts 10°
2026-05-07 16:13 -4.04855 114.11771 24043 ft 385 kts 10°
2026-05-07 16:13 -4.02194 114.12130 23636 ft 385 kts
2026-05-07 16:13 -3.99551 114.12009 23247 ft 384 kts 355°
2026-05-07 16:14 -3.96893 114.11727 22781 ft 383 kts 355°
2026-05-07 16:14 -3.94248 114.11452 22383 ft 380 kts 356°
2026-05-07 16:14 -3.91623 114.11198 21982 ft 378 kts 356°
2026-05-07 16:14 -3.89006 114.10963 21585 ft 375 kts 356°
2026-05-07 16:15 -3.86414 114.10739 21200 ft 373 kts 356°
2026-05-07 16:15 -3.83825 114.10520 20822 ft 371 kts 357°
2026-05-07 16:15 -3.81257 114.10304 20425 ft 370 kts 357°
2026-05-07 16:15 -3.78704 114.10090 20172 ft 364 kts 356°
2026-05-07 16:16 -3.76224 114.09881 19918 ft 354 kts 357°
2026-05-07 16:16 -3.73767 114.09676 19368 ft 353 kts 357°
2026-05-07 16:16 -3.71351 114.09475 18835 ft 353 kts 357°
2026-05-07 16:16 -3.68899 114.09272 18392 ft 351 kts 357°
2026-05-07 16:17 -3.66466 114.09070 17950 ft 349 kts 357°
2026-05-07 16:17 -3.64061 114.08870 17488 ft 346 kts 357°
2026-05-07 16:17 -3.61670 114.08671 17024 ft 343 kts 357°
2026-05-07 16:17 -3.59299 114.08474 16568 ft 341 kts 357°
2026-05-07 16:18 -3.56941 114.08278 16116 ft 339 kts 357°
2026-05-07 16:18 -3.54593 114.08082 15668 ft 337 kts 357°
2026-05-07 16:18 -3.52267 114.07889 15250 ft 334 kts 357°
2026-05-07 16:18 -3.49949 114.07696 14820 ft 332 kts 357°
2026-05-07 16:19 -3.47675 114.07814 14427 ft 325 kts 19°
2026-05-07 16:19 -3.45739 114.08823 14284 ft 308 kts 41°
2026-05-07 16:19 -3.44366 114.10402 14087 ft 296 kts 60°
2026-05-07 16:19 -3.43545 114.12259 13752 ft 292 kts 77°
2026-05-07 16:20 -3.43273 114.14263 13349 ft 290 kts 85°
2026-05-07 16:20 -3.43111 114.16253 12947 ft 289 kts 86°
2026-05-07 16:20 -3.42957 114.18254 12551 ft 288 kts 86°
2026-05-07 16:20 -3.42803 114.20248 12173 ft 286 kts 85°
2026-05-07 16:21 -3.42646 114.22234 11801 ft 285 kts 85°
2026-05-07 16:21 -3.42487 114.24208 11433 ft 283 kts 85°
2026-05-07 16:21 -3.42328 114.26166 11071 ft 282 kts 85°
2026-05-07 16:21 -3.42167 114.28117 10715 ft 280 kts 85°
2026-05-07 16:22 -3.42007 114.30058 10366 ft 279 kts 85°
2026-05-07 16:22 -3.41847 114.31983 10031 ft 277 kts 85°
2026-05-07 16:22 -3.41688 114.33895 9599 ft 275 kts 85°
2026-05-07 16:22 -3.41527 114.35807 9158 ft 274 kts 85°
2026-05-07 16:23 -3.41369 114.37703 8743 ft 272 kts 85°
2026-05-07 16:23 -3.41212 114.39583 8336 ft 270 kts 85°
2026-05-07 16:23 -3.41058 114.41429 7928 ft 268 kts 85°
2026-05-07 16:23 -3.40903 114.43281 7525 ft 266 kts 86°
2026-05-07 16:24 -3.40750 114.45120 7112 ft 264 kts 86°
2026-05-07 16:24 -3.40597 114.46947 6716 ft 262 kts 86°
2026-05-07 16:24 -3.40446 114.48747 6458 ft 255 kts 86°
2026-05-07 16:24 -3.40300 114.50482 6227 ft 246 kts 86°
2026-05-07 16:25 -3.40161 114.52163 6015 ft 238 kts 87°
2026-05-07 16:25 -3.40395 114.53776 5649 ft 236 kts 115°
2026-05-07 16:25 -3.41397 114.55060 5307 ft 236 kts 141°
2026-05-07 16:25 -3.42869 114.55789 4947 ft 239 kts 166°
2026-05-07 16:26 -3.44495 114.55783 4671 ft 239 kts 193°
2026-05-07 16:26 -3.45913 114.55039 4604 ft 225 kts 220°
2026-05-07 16:26 -3.46844 114.53815 4418 ft 221 kts 243°
2026-05-07 16:26 -3.47179 114.52837 4232 ft 220 kts 258°
2026-05-07 16:27 -3.47400 114.50847 3926 ft 215 kts 264°
2026-05-07 16:27 -3.47517 114.49362 3678 ft 214 kts 264°
2026-05-07 16:27 -3.47637 114.47877 3439 ft 214 kts 264°
2026-05-07 16:27 -3.47761 114.46388 3267 ft 213 kts 264°
2026-05-07 16:28 -3.47587 114.44958 3082 ft 205 kts 301°
2026-05-07 16:28 -3.46659 114.43891 3026 ft 207 kts 319°
2026-05-07 16:28 -3.45511 114.43101 2981 ft 194 kts 344°
2026-05-07 16:28 -3.44656 114.42909 2983 ft 187 kts
2026-05-07 16:29 -3.43382 114.43027 3011 ft 184 kts 21°
2026-05-07 16:29 -3.42244 114.43592 3010 ft 183 kts 42°
2026-05-07 16:29 -3.41371 114.44511 3003 ft 182 kts 58°
2026-05-07 16:29 -3.40735 114.45996 2983 ft 172 kts 86°
2026-05-07 16:30 -3.40684 114.46795 2997 ft 170 kts 88°
2026-05-07 16:30 -3.40570 114.47988 3000 ft 173 kts 85°
2026-05-07 16:30 -3.40452 114.49180 3000 ft 176 kts 86°
2026-05-07 16:30 -3.40335 114.50409 2987 ft 178 kts 86°
2026-05-07 16:31 -3.40223 114.51635 2999 ft 175 kts 86°
2026-05-07 16:31 -3.40201 114.52851 2802 ft 176 kts 96°
2026-05-07 16:31 -3.40294 114.54048 2611 ft 167 kts 95°
2026-05-07 16:31 -3.40401 114.55174 2551 ft 158 kts 98°
2026-05-07 16:32 -3.40556 114.56243 2490 ft 153 kts 99°
2026-05-07 16:32 -3.40735 114.57273 2492 ft 150 kts 100°
2026-05-07 16:32 -3.40915 114.58282 2548 ft 148 kts 101°
2026-05-07 16:32 -3.41103 114.59279 2514 ft 144 kts 101°
2026-05-07 16:33 -3.41284 114.60263 2519 ft 143 kts 101°
2026-05-07 16:33 -3.41459 114.61233 2482 ft 141 kts 100°
2026-05-07 16:33 -3.41640 114.62203 2481 ft 143 kts 101°
2026-05-07 16:33 -3.41823 114.63182 2331 ft 143 kts 101°
2026-05-07 16:34 -3.41997 114.64132 2166 ft 135 kts 101°
2026-05-07 16:34 -3.42161 114.65042 2021 ft 133 kts 101°
2026-05-07 16:34 -3.42328 114.65956 1826 ft 137 kts 100°
2026-05-07 16:34 -3.42502 114.66892 1684 ft 138 kts 101°
2026-05-07 16:35 -3.42680 114.67846 1487 ft 139 kts 101°
2026-05-07 16:35 -3.42827 114.68628 1305 ft 134 kts 101°
2026-05-07 16:35 -3.42993 114.69546 1152 ft 138 kts 101°
2026-05-07 16:35 -3.43168 114.70488 978 ft 136 kts 101°
2026-05-07 16:36 -3.43337 114.71406 833 ft 133 kts 101°
2026-05-07 16:36 -3.43510 114.72337 650 ft 138 kts 101°
2026-05-07 16:36 -3.43678 114.73269 485 ft 135 kts 101°
2026-05-07 16:36 -3.43852 114.74201 311 ft 136 kts 101°
2026-05-07 16:37 -3.44023 114.75132 96 ft 137 kts 102°
2026-05-07 16:37 -3.44176 114.75960 75 ft 94 kts 101°
2026-05-07 16:37 -3.44255 114.76389 72 ft 35 kts 100°
2026-05-07 16:37 -3.44298 114.76621 69 ft 32 kts 100°
2026-05-07 16:38 -3.44335 114.76829 75 ft 29 kts 101°
2026-05-07 16:38 -3.44373 114.77023 71 ft 28 kts 100°
2026-05-07 16:38 -3.44405 114.77192 74 ft 20 kts 101°
2026-05-07 16:38 -3.44421 114.77295 69 ft 12 kts 91°
2026-05-07 16:39 -3.44411 114.77329 75 ft 6 kts 69°
2026-05-07 16:39 -3.44425 114.77359 65 ft 5 kts 178°
2026-05-07 16:39 -3.44432 114.77329 66 ft 6 kts 295°
2026-05-07 16:39 -3.44420 114.77277 75 ft 11 kts 280°
2026-05-07 16:40 -3.44402 114.77175 72 ft 19 kts 280°
2026-05-07 16:40 -3.44373 114.77025 70 ft 25 kts 280°
2026-05-07 16:40 -3.44341 114.76847 66 ft 26 kts 280°
2026-05-07 16:40 -3.44310 114.76677 69 ft 24 kts 281°
2026-05-07 16:41 -3.44279 114.76519 70 ft 23 kts 281°
2026-05-07 16:41 -3.44250 114.76365 70 ft 22 kts 281°
2026-05-07 16:41 -3.44223 114.76216 75 ft 21 kts 279°
2026-05-07 16:41 -3.44200 114.76086 75 ft 18 kts 281°
2026-05-07 16:42 -3.44182 114.75994 75 ft 9 kts 281°
2026-05-07 16:42 -3.44154 114.75943 71 ft 9 kts 335°
2026-05-07 16:42 -3.44095 114.75951 71 ft 8 kts 11°
2026-05-07 16:42 -3.44038 114.75962 73 ft 8 kts
2026-05-07 16:43 -3.43982 114.75972 72 ft 8 kts 10°
2026-05-07 16:43 -3.43955 114.75978 69 ft 0 kts 11°
2026-05-07 16:43 -3.43948 114.75979 74 ft 3 kts
2026-05-07 16:44 -3.43922 114.75967 66 ft 6 kts 314°
2026-05-07 16:44 -3.43911 114.75925 70 ft 6 kts 278°
2026-05-07 16:44 -3.43898 114.75915 66 ft 2 kts 346°
2026-05-07 16:44 -3.43881 114.75916 71 ft 3 kts
2026-05-07 16:45 -3.43857 114.75920 68 ft 5 kts 12°
2026-05-07 16:45 -3.43833 114.75925 72 ft 1 kts 11°
2026-05-07 16:45 -3.43825 114.75926 70 ft 0 kts 10°
2026-05-07 16:45 -3.43826 114.75926 70 ft 0 kts 10°